Weather Roundup
Issued by NWS

Home | Current Version | Previous Version | Graphics & Text | Print | Product List | Glossary Off
Versions: 1 2 3 4 5 6 7 8 9 10 11 12 13 14 15 16 17 18 19 20 21 22 23 24 25 26 27 28 29 30 31 32 33 34 35 36 37 38 39 40 41 42 43 44 45 46 47 48 49 50

000
NZUS93 KARX 191159
HRRWXR

CURRENT HOURLY OBSERVATIONS ACROSS
MUCH OF THE UPPER MISSISSIPPI VALLEY
NATIONAL WEATHER SERVICE LA CROSSE WI
700 AM CDT SAT AUG 19 2017


...SOUTHEAST MINNESOTA...


CITY           SKY/WX    TMP DP  RH WIND       PRES   REMARKS
ROCHESTER      CLEAR     52  52 100 SW5       29.96R
ROCHESTER/MAYO FAIR      56  56  98 CALM      29.96R
WINONA         FOG       55  55 100 CALM      29.95R VSB 3/4
AUSTIN         CLEAR     54  52  94 CALM      29.97R FOG
ALBERT LEA     MOCLDY    55  55 100 CALM      29.97R FOG
DODGE CENTER   CLEAR     52  52 100 CALM      29.96R FOG
PRESTON        CLEAR     52  50  94 S3        29.96R FOG
OWATONNA       FOG       54  52  94 CALM      29.97R VSB 1
FARIBAULT      FOG       55  55 100 SW5       29.96R VSB<1/4
$$

...ELSEWHERE IN MINNESOTA...


CITY           SKY/WX    TMP DP  RH WIND       PRES   REMARKS
MINNEAPOLIS    PTCLDY    60  57  89 SW3       29.94R FOG
INTNL FALLS    CLEAR     52  51  97 CALM      29.86R FOG
DULUTH         CLEAR     58  58 100 NW6       29.89R
RED WING       FOG       57  55  94 CALM      29.93R VSB<1/4
REDWOOD FALLS  FOG       55  54  96 SW3       29.95R VSB 1/4
MANKATO        FOG       58  58 100 SW3       29.97R VSB 1/4
WORTHINGTON    FOG       57  56  96 CALM      29.99R VSB<1/4
FAIRMONT       FOG       53  52  96 CALM      29.98R VSB 1/4
$$

...SOUTHWEST WISCONSIN...


CITY           SKY/WX    TMP DP  RH WIND       PRES   REMARKS
LA CROSSE      FOG       62  61  96 S3        29.94R VSB 1/4
PRAIRIE DU CHI FOG       57  56  95 CALM      29.95R VSB 1/4
BOSCOBEL       FOG       58  57  97 CALM      29.96R VSB<1/4
LONE ROCK      FOG       57  57 100 CALM      29.95R VSB<1/4
PLATTEVILLE      N/A     54  54 100 CALM      29.96R VSB<1/4
FORT MC COY    FOG       51  51 100 CALM      29.95S VSB 1/2
CAMP DOUGLAS   FOG       50  50 100 CALM      29.94S VSB 1/2
MAUSTON-NEW LI SUNNY     54  53  99 CALM      29.94S FOG
VIROQUA          N/A     56  56 100 CALM      29.95S VSB<1/4
WIS DELLS      CLEAR     57  56  96 CALM      29.95S FOG
$$

...ELSEWHERE IN WISCONSIN...


CITY           SKY/WX    TMP DP  RH WIND       PRES   REMARKS
MILWAUKEE      CLEAR     65  62  90 NW6       29.93R
MADISON        CLEAR     58  57  97 CALM      29.94S
GREEN BAY      CLOUDY    62  62 100 W9        29.92R FOG
EAU CLAIRE     FOG       57  57 100 CALM      29.93R VSB<1/4
BLACK RVR FLS  FOG       53  53 100 CALM      29.94R VSB<1/4
MEDFORD        FOG       58  58  99 W6        29.94R VSB<1/4
WAUSAU         MOCLDY    61  60  97 W6        29.92R FOG
WIS RAPIDS     FOG       58  58 100 CALM      29.96R VSB<1/4
MARSHFIELD     CLEAR     57  56  96 NW3       29.94R FOG
RICE LAKE      FOG       53  52  98 CALM      29.94S VSB<1/4
$$

...NORTHEAST IOWA...


CITY           SKY/WX    TMP DP  RH WIND       PRES   REMARKS
WATERLOO       CLEAR     56  55  97 CALM      29.95R
DUBUQUE        CLEAR     59  58  96 CALM      29.96R FOG
DECORAH        FOG       52  52 100 CALM      29.96R VSB<1/4
MASON CITY     PTCLDY    53  52  96 NE3       29.98R FOG
CHARLES CITY   CLEAR     54  54 100 CALM      29.97R FOG
OELWEIN        CLEAR     55  55 100 SW3       29.98R
$$

...ELSEWHERE IN IOWA...


CITY           SKY/WX    TMP DP  RH WIND       PRES   REMARKS
DES MOINES     PTCLDY    65  62  90 SE5       29.92R
IOWA CITY      CLEAR     61  59  93 SW5       29.97R
FORT DODGE     CLEAR     57  54  88 CALM      29.96R
MARSHALLTOWN   PTCLDY    60  60 100 NE5       29.94R
CEDAR RAPIDS   CLEAR     57  57 100 CALM      29.95R
$$

...NORTHERN ILLINOIS...


CITY           SKY/WX    TMP DP  RH WIND       PRES   REMARKS
CHICAGO-OHARE  PTCLDY    64  60  87 NW6       29.94R
CHICAGO-MIDWAY PTCLDY    66  61  84 W5        29.94R
MOLINE         CLOUDY    65  61  87 CALM      29.94R
ROCKFORD       CLEAR     58  57  97 S5        29.97R
PEORIA         CLOUDY    67  62  84 E8        29.94S
$$

NOTE: "FAIR" INDICATES FEW OR NO CLOUDS BELOW 12,000 FEET WITH NO
SIGNIFICANT WEATHER AND/OR OBSTRUCTIONS TO VISIBILITY. WIND
SPEEDS ARE IN MILES-PER-HOUR.




USA.gov is the U.S. government's official web portal to all federal, state and local government web resources and services.